Weather History for Georgetown, SC

Change the Weather History Date:

Thursday, February 7, 2013

  Actual Average Record
Temperature  
Mean Temperature 47 °F -  
Max Temperature 55 °F 58 °F 59 °F (2012)
Min Temperature 39 °F 37 °F 33 °F (2014)
Degree Days  
Heating Degree Days 18    
Moisture  
Dew Point 51 °F    
Average Humidity 98    
Maximum Humidity 100    
Minimum Humidity 88    
Precipitation  
Precipitation 0.00 in - - ()
Sea Level Pressure  
Sea Level Pressure 30.07 in    
Wind  
Wind Speed 7 mph (NE)    
Max Wind Speed 18 mph    
Max Gust Speed 26 mph    
Visibility 8 miles    
Events Rain , Thunderstorm    
Averages and records for this station are not official NWS values.
T = Trace of Precipitation, MM = Missing Value Source: NWS Daily Summary

Daily Weather History Graph

Daily Weather History Graph

Search for Another Location

Airport:

Trip Planner

Search our weather history database for the weather conditions in past years. The results will help you decide how hot, cold, wet, or windy it might be!

Date:

Astronomy

Feb. 07, 2013 Rise Set
Actual Time 7:08 AM EST 5:55 PM EST
Civil Twilight 6:42 AM EST 6:20 PM EST
Nautical Twilight 6:13 AM EST 6:50 PM EST
Astronomical Twilight 5:44 AM EST 7:19 PM EST
Moon 4:41 AM EST (2/7) 3:21 PM EST (2/7)
Length of Visible Light 11h 38m
Length of Day
10h 46m
Waning Crescent, 9% of the Moon is Illuminated
Feb 7
Waning Crescent
Feb 10
New
Feb 17
First Quarter
Feb 25
Full
Mar 4
Last Quarter

Hourly Weather History & Observations

Time (EST) Temp. Windchill Dew Point Humidity Pressure Visibility Wind Dir Wind Speed Gust Speed Precip Events Conditions
12:15 AM 41.0 °F - 41.0 °F 100% 30.20 in 5.0 mi Calm Calm - N/A   Clear
12:35 AM 42.8 °F - 42.8 °F 100% 30.19 in 3.0 mi Calm Calm - N/A   Clear
12:55 AM 42.8 °F - 42.8 °F 100% 30.19 in 5.0 mi Calm Calm - N/A   Clear
1:15 AM 41.0 °F - 41.0 °F 100% 30.19 in 3.0 mi Calm Calm - N/A   Clear
1:35 AM 42.8 °F - 42.8 °F 100% 30.19 in 7.0 mi Calm Calm - N/A   Clear
1:55 AM 39.2 °F - 39.2 °F 100% 30.19 in 1.8 mi Calm Calm - N/A   Mist
2:15 AM 41.0 °F - 41.0 °F 100% 30.19 in 7.0 mi Calm Calm - N/A   Clear
2:35 AM 41.0 °F 38.0 °F 41.0 °F 100% 30.19 in 7.0 mi NE 4.6 mph - N/A   Clear
2:55 AM 46.4 °F 43.5 °F 46.4 °F 100% 30.19 in 3.0 mi ENE 5.8 mph - N/A   Clear
3:15 AM 46.4 °F 45.2 °F 46.4 °F 100% 30.19 in 10.0 mi NE 3.5 mph - N/A   Clear
3:35 AM 46.4 °F 45.2 °F 46.4 °F 100% 30.18 in 7.0 mi NE 3.5 mph - N/A   Clear
3:55 AM 48.2 °F - 48.2 °F 100% 30.18 in 10.0 mi NE 6.9 mph - N/A   Clear
4:15 AM 50.0 °F - 50.0 °F 100% 30.18 in 10.0 mi ENE 8.1 mph - N/A   Clear
4:35 AM 50.0 °F - 50.0 °F 100% 30.18 in 10.0 mi ENE 10.4 mph - N/A   Clear
4:55 AM 50.0 °F - 50.0 °F 100% 30.19 in 10.0 mi ENE 8.1 mph - N/A   Clear
5:15 AM 50.0 °F - 50.0 °F 100% 30.19 in 10.0 mi ENE 5.8 mph - N/A   Clear
5:35 AM 50.0 °F - 50.0 °F 100% 30.19 in 10.0 mi NE 5.8 mph - N/A   Clear
5:55 AM 50.0 °F - 50.0 °F 100% 30.19 in 10.0 mi NE 6.9 mph - N/A   Clear
6:15 AM 50.0 °F - 50.0 °F 100% 30.20 in 10.0 mi NE 4.6 mph - N/A   Clear
6:35 AM 50.0 °F - 50.0 °F 100% 30.20 in 10.0 mi NE 4.6 mph - N/A   Scattered Clouds
6:55 AM 50.0 °F - 50.0 °F 100% 30.20 in 10.0 mi ENE 3.5 mph - N/A   Scattered Clouds
7:15 AM 50.0 °F - 50.0 °F 100% 30.19 in 10.0 mi ENE 5.8 mph - N/A   Scattered Clouds
7:35 AM 50.0 °F - 50.0 °F 100% 30.20 in 10.0 mi ENE 6.9 mph - N/A   Mostly Cloudy
7:55 AM 50.0 °F - 50.0 °F 100% 30.20 in 10.0 mi ENE 9.2 mph - N/A   Mostly Cloudy
8:15 AM 51.8 °F - 51.8 °F 100% 30.20 in 10.0 mi ENE 9.2 mph - N/A   Mostly Cloudy
8:35 AM 51.8 °F - 51.8 °F 100% 30.19 in 10.0 mi NE 8.1 mph - N/A   Scattered Clouds
8:55 AM 51.8 °F - 51.8 °F 100% 30.19 in 10.0 mi NE 9.2 mph - N/A   Scattered Clouds
9:35 AM 53.6 °F - 51.8 °F 94% 30.18 in 10.0 mi ENE 9.2 mph - N/A   Mostly Cloudy
9:55 AM 53.6 °F - 51.8 °F 94% 30.18 in 10.0 mi NE 9.2 mph - N/A   Mostly Cloudy
10:15 AM 53.6 °F - 51.8 °F 94% 30.17 in 10.0 mi ENE 9.2 mph 16.1 mph N/A   Mostly Cloudy
10:35 AM 55.4 °F - 51.8 °F 88% 30.17 in 10.0 mi ENE 10.4 mph - N/A   Overcast
10:55 AM 55.4 °F - 51.8 °F 88% 30.17 in 10.0 mi ENE 9.2 mph - N/A   Overcast
11:15 AM 55.4 °F - 51.8 °F 88% 30.16 in 10.0 mi ENE 6.9 mph 17.3 mph N/A   Mostly Cloudy
11:35 AM 55.4 °F - 51.8 °F 88% 30.15 in 10.0 mi NE 10.4 mph - N/A   Mostly Cloudy
11:55 AM 55.4 °F - 51.8 °F 88% 30.14 in 10.0 mi ENE 5.8 mph - N/A   Overcast
12:15 PM 55.4 °F - 51.8 °F 88% 30.13 in 10.0 mi NE 11.5 mph - N/A   Overcast
12:35 PM 53.6 °F - 51.8 °F 94% 30.12 in 10.0 mi NE 12.7 mph - N/A Rain Light Rain
12:55 PM 53.6 °F - 51.8 °F 94% 30.11 in 10.0 mi NE 13.8 mph 19.6 mph N/A   Light Drizzle
1:15 PM 53.6 °F - 53.6 °F 100% 30.10 in 10.0 mi NE 11.5 mph 19.6 mph N/A   Overcast
1:35 PM 53.6 °F - 51.8 °F 94% 30.08 in 10.0 mi NE 15.0 mph - N/A Rain Light Rain
1:55 PM 55.4 °F - 53.6 °F 94% 30.07 in 10.0 mi NE 13.8 mph 19.6 mph N/A Rain Rain
2:15 PM 55.4 °F - 53.6 °F 94% 30.06 in 10.0 mi NE 11.5 mph - N/A Rain Rain
2:35 PM 55.4 °F - 55.4 °F 100% 30.06 in 7.0 mi NE 9.2 mph - N/A Rain Light Rain
2:55 PM 55.4 °F - 55.4 °F 100% 30.04 in 7.0 mi NE 11.5 mph 18.4 mph N/A Rain Rain
3:15 PM 55.4 °F - 55.4 °F 100% 30.04 in 7.0 mi NE 11.5 mph 19.6 mph N/A Rain Light Rain
3:35 PM 53.6 °F - 53.6 °F 100% 30.03 in 5.0 mi NE 10.4 mph - N/A Rain Rain
3:55 PM 53.6 °F - 53.6 °F 100% 30.02 in 4.0 mi NE 12.7 mph 19.6 mph N/A Rain Rain
4:15 PM 53.6 °F - 53.6 °F 100% 30.03 in 5.0 mi NE 11.5 mph 17.3 mph N/A Rain Rain
4:35 PM 53.6 °F - 53.6 °F 100% 30.02 in 3.0 mi NNE 9.2 mph - N/A Rain Rain
4:55 PM 53.6 °F - 53.6 °F 100% 30.00 in 5.0 mi NE 11.5 mph - N/A Rain Light Rain
5:15 PM 53.6 °F - 53.6 °F 100% 30.01 in 5.0 mi SSE 10.4 mph - N/A Rain Heavy Rain
5:35 PM 53.6 °F - 53.6 °F 100% 29.99 in 4.0 mi ENE 18.4 mph 26.5 mph N/A Rain Heavy Rain
5:55 PM 53.6 °F - 53.6 °F 100% 29.98 in 10.0 mi NE 17.3 mph - N/A Rain Light Rain
6:15 PM 53.6 °F - 53.6 °F 100% 29.97 in 10.0 mi NE 9.2 mph 18.4 mph N/A Rain Light Rain
6:35 PM 53.6 °F - 53.6 °F 100% 29.96 in 10.0 mi NE 12.7 mph - N/A Rain Light Rain
6:55 PM 53.6 °F - 53.6 °F 100% 29.96 in 10.0 mi NE 13.8 mph 20.7 mph N/A Rain Light Rain
7:15 PM 53.6 °F - 53.6 °F 100% 29.95 in 7.0 mi NE 15.0 mph 20.7 mph N/A Rain Rain
7:35 PM 53.6 °F - 53.6 °F 100% 29.93 in 7.0 mi NE 18.4 mph 21.9 mph N/A Rain Light Rain
7:55 PM 53.6 °F - 53.6 °F 100% 29.92 in 10.0 mi NE 12.7 mph 20.7 mph N/A Rain Light Rain
8:15 PM 53.6 °F - 53.6 °F 100% 29.91 in 10.0 mi NE 16.1 mph - N/A Rain Light Rain
8:35 PM 53.6 °F - 53.6 °F 100% 29.90 in 10.0 mi NE 13.8 mph 19.6 mph N/A Rain Light Rain
8:55 PM 53.6 °F - 53.6 °F 100% 29.88 in 10.0 mi NE 11.5 mph 21.9 mph N/A Rain Light Rain
9:15 PM 53.6 °F - 53.6 °F 100% 29.86 in 5.0 mi ENE 17.3 mph 24.2 mph N/A Rain Rain
9:35 PM 53.6 °F - 53.6 °F 100% 29.86 in 10.0 mi ENE 17.3 mph 24.2 mph N/A Rain Light Rain
9:55 PM 53.6 °F - 53.6 °F 100% 29.83 in 7.0 mi ENE 16.1 mph 23.0 mph N/A Rain Light Rain
10:15 PM 53.6 °F - 53.6 °F 100% 29.82 in 7.0 mi NE 15.0 mph 24.2 mph N/A Rain , Thunderstorm Rain
10:35 PM 53.6 °F - 53.6 °F 100% 29.80 in 10.0 mi NE 11.5 mph 20.7 mph N/A Rain , Thunderstorm Rain
10:55 PM 53.6 °F - 53.6 °F 100% 29.80 in 7.0 mi SE 6.9 mph 20.7 mph N/A Rain Rain
11:15 PM 53.6 °F - 53.6 °F 100% 29.77 in 7.0 mi NE 17.3 mph - N/A Rain Light Rain
11:55 PM 53.6 °F - 53.6 °F 100% 29.74 in 10.0 mi NE 11.5 mph - N/A Rain Light Rain